This is the latest recevied weather packets stored in our database for station/object KK7MLS-13. If no packets are shown the sender has not sent any weather packets the latest 10 day(s).
| Time | Temp. | Humidity | Pressure | Rain* | Wind** | Luminosity | Snow |
|---|---|---|---|---|---|---|---|
| 1788441108 | 12.22° C | 93% | 1009.9 hPa | 3.05 mm | - | 0 W/m² | - |
| 1788440804 | 12.22° C | 93% | 1010.1 hPa | 0 mm | - | 0 W/m² | - |
| 1788440504 | 12.22° C | 93% | 1010.1 hPa | 0 mm | - | 0 W/m² | - |
| 1788440202 | 12.22° C | 92% | 1009.8 hPa | 1.78 mm | - | 0 W/m² | - |
| 1788439898 | 12.22° C | 92% | 1010 hPa | 1.78 mm | - | 0 W/m² | - |
| 1788439597 | 12.78° C | 91% | 1010.1 hPa | 0 mm | - | 0 W/m² | - |
| 1788439292 | 12.78° C | 91% | 1010 hPa | 1.27 mm | - | 0 W/m² | - |
| 1788438991 | 12.78° C | 90% | 1010 hPa | 1.27 mm | - | 0 W/m² | - |
| 1788438690 | 12.78° C | 90% | 1009.9 hPa | 0 mm | - | 0 W/m² | - |
| 1788438385 | 12.78° C | 90% | 1009.9 hPa | 0 mm | - | 0 W/m² | - |
| 1788438084 | 12.78° C | 90% | 1009.9 hPa | 0 mm | - | 0 W/m² | - |
| 1788437783 | 12.78° C | 90% | 1009.9 hPa | 0 mm | - | 0 W/m² | - |
| 1788437479 | 12.22° C | 91% | 1010 hPa | 0 mm | - | 0 W/m² | - |
| 1788437178 | 12.22° C | 91% | 1010 hPa | 0 mm | - | 0 W/m² | - |
| 1788436873 | 12.22° C | 91% | 1010.1 hPa | 0 mm | - | 0 W/m² | - |
| 1788436571 | 12.22° C | 91% | 1009.9 hPa | 0 mm | - | 0 W/m² | - |
| 1788436267 | 12.22° C | 91% | 1009.9 hPa | 0 mm | - | 0 W/m² | - |
| 1788435961 | 12.22° C | 91% | 1010.1 hPa | 0 mm | - | 0 W/m² | - |
| 1788435657 | 12.22° C | 91% | 1010.2 hPa | 0 mm | - | 0 W/m² | - |
| 1788435353 | 12.22° C | 91% | 1010 hPa | 0 mm | - | 0 W/m² | - |
| 1788435049 | 12.22° C | 92% | 1010.1 hPa | 0 mm | - | 0 W/m² | - |
| 1788434744 | 12.22° C | 92% | 1010 hPa | 0 mm | - | 0 W/m² | - |
| 1788434444 | 12.22° C | 92% | 1010 hPa | 0 mm | - | 0 W/m² | - |
| 1788434143 | 12.22° C | 92% | 1010.2 hPa | 0 mm | - | 0 W/m² | - |
| 1788433839 | 12.22° C | 92% | 1010 hPa | 0 mm | - | 0 W/m² | - |
* Rain latest hour (hover to see other rain measurements)
** Current wind speed in m/s (hover to see current wind gust speed)